Location: Dalton Gardens
(47.7327°N, 116.7697°W)
Time: 05:31:52
(UTC+00:00)

BlueWalker 3 - Visible Passes

Search period start: 02 December 2023 00:00
Search period end: 12 December 2023 00:00
Orbit: 489 x 504 km, 53.2° (Epoch: 01 December)

Date Brightness Start Highest point End Pass type
(mag) Time Alt. Az. Time Alt. Az. Time Alt. Az.
02 Dec 4.9 11:55:24 16° E 11:55:24 16° E 11:56:15 10° E visible
02 Dec 2.2 13:29:58 38° W 13:30:58 50° SW 13:34:40 10° SE visible
03 Dec 2.2 13:08:27 50° SSW 13:08:27 50° SSW 13:12:02 10° SE visible
04 Dec 3.2 12:47:00 33° SSE 12:47:00 33° SSE 12:49:22 10° SE visible
05 Dec 4.3 12:25:36 18° SE 12:25:36 18° SE 12:26:43 10° SE visible
